Tracking 35237 objects as of 6-Sep-2026
HD Live streaming from Space Station
objects crossing your sky now

STARLINK-11507

Track STARLINK-11507 now!
10-day predictions
STARLINK-11507 is classified as:


NORAD ID: 62519
Int'l Code: 2025-004J
Launch date: January 8, 2025
Source: United States (US)
Launch site: AIR FORCE EASTERN TEST RANGE (AFETR)
Your satellite tracking list
Your tracking list is empty




NASA's NSSDC Master Catalog

Two Line Element Set (TLE):
1 62519U 25004J   26248.79844231  .00125360  00000-0  96486-3 0  9997
2 62519  43.0005  65.2078 0002780 287.9885  72.0679 15.70860563 95533
Source of the keplerian elements: AFSPC